Weather History for Peoria, IL

Change the Weather History Date:

Saturday, August 24, 2013

  Actual Average Record
Temperature  
Mean Temperature 76 °F 73 °F  
Max Temperature 89 °F 83 °F 102 °F (1936)
Min Temperature 62 °F 63 °F 43 °F (1920)
Degree Days  
Heating Degree Days 0 0  
Month to date heating degree days 1 0  
Since 1 June heating degree days 23 19  
Since 1 July heating degree days 5 1  
Cooling Degree Days 11 8  
Month to date cooling degree days 190 223  
Year to date cooling degree days 820 854  
Since 1 June cooling degree days 713 773  
Growing Degree Days 26 (Base 50)    
Moisture  
Dew Point 63 °F    
Average Humidity 65    
Maximum Humidity 84    
Minimum Humidity 46    
Precipitation  
Precipitation 0.00 in 0.10 in 2.50 in (1982)
Month to date precipitation 0.33 2.49  
Year to date precipitation 31.83 24.20  
Snow  
Snow 0.00 in 0.00 in 0.00 in ()
Month to date snowfall 0.0 0.0  
Since 1 June snowfall 0.0 0.0  
Since 1 July snowfall 0.0 0.0  
Snow Depth 0.00 in    
Sea Level Pressure  
Sea Level Pressure 30.19 in    
Wind  
Wind Speed 7 mph (SE)    
Max Wind Speed 13 mph    
Max Gust Speed 17 mph    
Visibility 10 miles    
Events      
T = Trace of Precipitation, MM = Missing Value Source: NWS Daily Summary

Daily Weather History Graph

Daily Weather History Graph

Search for Another Location

Airport:

Trip Planner

Search our weather history database for the weather conditions in past years. The results will help you decide how hot, cold, wet, or windy it might be!

Date:

Astronomy

Aug. 24, 2013 Rise Set
Actual Time 6:18 AM CDT 7:43 PM CDT
Civil Twilight 5:49 AM CDT 8:11 PM CDT
Nautical Twilight 5:15 AM CDT 8:45 PM CDT
Astronomical Twilight 4:38 AM CDT 9:22 PM CDT
Moon 9:35 PM CDT (8/24) 10:19 AM CDT (8/24)
Length of Visible Light 14h 21m
Length of Day
13h 24m
Waning Gibbous, 84% of the Moon is Illuminated
Aug 24
Waning Gibbous
Aug 28
Last Quarter
Sep 5
New
Sep 12
First Quarter
Sep 19
Full

Hourly Weather History & Observations

Time (CDT) Temp. Heat Index Dew Point Humidity Pressure Visibility Wind Dir Wind Speed Gust Speed Precip Events Conditions
12:54 AM 69.1 °F - 57.0 °F 65% 30.14 in 10.0 mi East 9.2 mph - N/A   Clear
1:54 AM 66.9 °F - 57.0 °F 70% 30.15 in 10.0 mi ENE 6.9 mph - N/A   Clear
2:54 AM 66.9 °F - 57.0 °F 70% 30.17 in 10.0 mi East 9.2 mph - N/A   Clear
3:54 AM 64.9 °F - 57.0 °F 75% 30.18 in 10.0 mi East 8.1 mph - N/A   Clear
4:54 AM 64.0 °F - 57.0 °F 78% 30.18 in 10.0 mi East 3.5 mph - N/A   Clear
5:54 AM 63.0 °F - 57.9 °F 84% 30.19 in 10.0 mi East 4.6 mph - N/A   Clear
6:54 AM 64.0 °F - 59.0 °F 84% 30.21 in 10.0 mi ENE 5.8 mph - N/A   Clear
7:54 AM 69.1 °F - 61.0 °F 75% 30.22 in 10.0 mi SE 4.6 mph - N/A   Clear
8:54 AM 73.9 °F - 62.1 °F 66% 30.23 in 10.0 mi SE 4.6 mph - N/A   Clear
9:54 AM 78.1 °F - 64.0 °F 62% 30.22 in 10.0 mi Variable 6.9 mph - N/A   Clear
10:54 AM 82.0 °F 83.8 °F 64.9 °F 56% 30.22 in 10.0 mi South 9.2 mph - N/A   Clear
11:54 AM 84.0 °F 86.3 °F 66.0 °F 55% 30.22 in 10.0 mi SSE 11.5 mph - N/A   Partly Cloudy
12:54 PM 84.9 °F 87.1 °F 66.0 °F 53% 30.21 in 10.0 mi South 10.4 mph - N/A   Mostly Cloudy
1:54 PM 86.0 °F 87.6 °F 64.9 °F 49% 30.20 in 10.0 mi SSW 8.1 mph - N/A   Scattered Clouds
2:54 PM 88.0 °F 89.3 °F 64.0 °F 45% 30.18 in 10.0 mi SSW 8.1 mph - N/A   Scattered Clouds
3:54 PM 88.0 °F 89.6 °F 64.9 °F 46% 30.17 in 10.0 mi SSE 12.7 mph - N/A   Scattered Clouds
4:54 PM 84.9 °F 86.6 °F 64.9 °F 51% 30.17 in 10.0 mi South 10.4 mph - N/A   Mostly Cloudy
5:54 PM 86.0 °F 87.6 °F 64.9 °F 49% 30.17 in 10.0 mi South 9.2 mph - N/A   Clear
6:54 PM 82.9 °F 84.6 °F 64.9 °F 54% 30.16 in 10.0 mi SSE 8.1 mph - N/A   Clear
7:54 PM 80.1 °F 82.1 °F 66.0 °F 62% 30.17 in 10.0 mi SE 3.5 mph - N/A   Clear
8:54 PM 78.1 °F - 66.0 °F 66% 30.18 in 10.0 mi SE 3.5 mph - N/A   Clear
9:54 PM 75.9 °F - 66.0 °F 71% 30.19 in 10.0 mi SE 6.9 mph - N/A   Clear
10:54 PM 75.9 °F - 66.0 °F 71% 30.19 in 10.0 mi SSE 4.6 mph - N/A   Clear
11:54 PM 75.0 °F - 64.9 °F 71% 30.19 in 10.0 mi South 3.5 mph - N/A   Clear